Weather in Pysmenne

Ukraine / Dnipropetrovsk Region     48°12′06″N   35°48′20″E
temp.,
°C
wind,
m/s
gust,
m/s
humid.,
%
clouds,
%
prec.,
mm/h
press.,
hPa
HPBL,
m
16 may, sun
sun1600:00+15sse33680 0.0 101321
03:00+14e1177100 0.0 101311
06:00+14ene337666 0.0 101341
09:00+20ene4660100 0.0 1013404
12:00+24ene4548100 0.0 10111197
15:00+26ene55435 0.0 10091745
18:00+25nne585882 0.0 1007663
21:00+18ne4990100 5.1 1006174
17 may, mon
mon1700:00+17ne498544 0.1 1006150
03:00+15e3583100 0.1 100470
06:00+15ene61281100 0.9 1001205
09:00+20ese710655 1.0 1003598
12:00+23sse81065100 0.0 1003946
15:00+24s686110 0.0 10041068
18:00+22ssw796629 0.0 10051223
21:00+16s61377100 0.0 1007564
18 may, tue
tue1800:00+14ssw71487100 0.0 1007595
03:00+13s51191100 0.0 1008494
06:00+14s5988100 0.0 1008357
09:00+18s71069100 0.0 1008737
12:00+22s795488 0.0 10071615
15:00+20ssw71162100 0.4 1006801
18:00+16ssw6128998 0.3 1007576
21:00+16s71390100 1.1 1007623
19 may, wed
wed1900:00+14s51094100 1.6 1006391
03:00+14sw51091100 4.3 1006372
06:00+11wsw61193100 0.2 1008521
09:00+13wsw7108091 0.2 1009905
12:00+16wsw9136678 0.4 10101676
15:00+18wsw10145599 0.9 10112003
18:00+17w614675 0.3 10121619
21:00+12sw34845 0.4 101350
20 may, thu
thu2000:00+11wsw48852 0.0 1014151
03:00+10wsw33905 0.0 101438
06:00+11ssw118666 0.0 101516
09:00+17se3467100 0.0 1014538
12:00+20se4452100 0.0 10141408
15:00+21ese5647100 0.0 10121520
18:00+20e585689 0.0 1011478
21:00+16e4127774 0.2 1010319